Location: Bidwell Hollow
(37.7387°N, 90.1707°W)
Time: 22:45:56
(UTC+00:00)

Transit 2A - Pass Details

Date: 17 May 2026
Orbit: 595 x 949 km, 66.7° (Epoch: 6 June)

Event Time Altitude Azimuth Distance (km) Brightness Sun altitude
Rises 06:10:46 0° 334° (NNW) 3,128 10.0 -32.8°
Reaches altitude 10° 06:13:14 10° 337° (NNW) 2,149 9.0 -32.8°
Enters shadow 06:15:50 31° 346° (NNW) 1,180 7.4 -32.7°
